DEIMOS-2

Last updated on Tue Sep 16 2025 00:02:30 GMT+0000 (Coordinated Universal Time)

1 40013U 14033D 25258.62985635 .00001692 00000+0 17059-3 0 9997 2 40013 97.6176 137.3247 0001986 105.9262 254.2177 14.92391749596751
UTC large
Height (km)
Speed (km/s)
/
Latitude / Longitude
Inclination (degrees)
Orbital Period (minutes)
Azimuth
Elevation
Range (km)
Doppler Factor

Next 0 passes for location: London (51.5072 / 0.1276)

Sorry there are no passes over London.